Elkins, WV

10:28 PM EST on November 11, 2019 (GMT -0500)
Elkins-Randolph County

Weather History for KEKN - September, 2019

Change the Weather History Date:

Saturday, September 21, 2019

  Actual Average Record
Temperature  
Mean Temperature 70 °F 60 °F  
Max Temperature 86 °F 72 °F 88 °F (1931)
Min Temperature 55 °F 49 °F 29 °F (1956)
Degree Days  
Heating Degree Days 0 6  
Month to date heating degree days 4 64  
Since 1 July heating degree days 11 94  
Cooling Degree Days 6 1  
Month to date cooling degree days 107 39  
Year to date cooling degree days 778 465  
Growing Degree Days 20 (Base 50)    
Moisture  
Dew Point 57 °F    
Average Humidity 78    
Maximum Humidity 94    
Minimum Humidity 44    
Precipitation  
Precipitation 0.00 in 0.13 in 2.08 in (1948)
Month to date precipitation T 2.59  
Year to date precipitation 37.71 35.40  
Snow  
Snow 0.00 in 0.00 in 0.00 in (2016)
Month to date snowfall 0.0 0.0  
Since 1 September snowfall 0.0 0.0  
Snow Depth 0.00 in    
Sea Level Pressure  
Sea Level Pressure 30.28 in    
Wind  
Wind Speed 1 mph ()    
Max Wind Speed 14 mph    
Max Gust Speed 18 mph    
Visibility 6.1 miles    
Events Fog    
T = Trace of Precipitation, MM = Missing Value Source: Averaged Metar Reports

Daily Weather History Graph

Daily Weather History Graph

Search for Another Location

Airport or City:

Astronomy

Sep. 21, 2019 Rise Set
Actual Time 7:06 AM EDT 7:18 PM EDT
Civil Twilight 6:39 AM EDT 7:45 PM EDT
Nautical Twilight 6:08 AM EDT 8:16 PM EDT
Astronomical Twilight 5:36 AM EDT 8:47 PM EDT
Moon 11:58 PM EDT (9/21) 2:06 PM EDT (9/21)
Length of Visible Light 13h 05m
Length of Day
12h 12m
Waning Gibbous, 55% of the Moon is Illuminated
Sep 21
Waning Gibbous
Sep 21
Last Quarter
Sep 28
New
Oct 5
First Quarter
Oct 13
Full

Hourly Weather History & Observations

Time (EDT) Temp. Heat Index Dew Point Humidity Pressure Visibility Wind Dir Wind Speed Gust Speed Precip Events Conditions
12:51 AM 57.0 °F - 54.0 °F 89% 30.27 in 4.0 mi Calm Calm - N/A   Clear
1:51 AM 57.0 °F - 54.0 °F 89% 30.28 in 4.0 mi Calm Calm - N/A   Clear
2:51 AM 57.0 °F - 53.1 °F 87% 30.27 in 8.0 mi Calm Calm - N/A   Scattered Clouds
3:02 AM 57.0 °F - 54.0 °F 89% 30.29 in 5.0 mi Calm Calm - N/A   Scattered Clouds
3:51 AM 57.0 °F - 54.0 °F 89% 30.27 in 8.0 mi Calm Calm - N/A   Partly Cloudy
4:51 AM 57.0 °F - 54.0 °F 89% 30.27 in 5.0 mi Calm Calm - N/A   Scattered Clouds
5:36 AM 57.0 °F - 54.0 °F 89% 30.30 in 1.5 mi Calm Calm - N/A   Partly Cloudy
5:46 AM 55.4 °F - 53.6 °F 94% 30.30 in 2.5 mi Calm Calm - N/A   Scattered Clouds
5:47 AM 55.4 °F - 53.6 °F 94% 30.30 in 3.0 mi Calm Calm - N/A   Scattered Clouds
5:53 AM 57.0 °F - 54.0 °F 89% 30.30 in 1.0 mi Calm Calm - N/A   Mist
6:00 AM 55.9 °F - 54.0 °F 93% 30.31 in 0.5 mi Calm Calm - N/A Fog Fog
6:11 AM 55.9 °F - 53.1 °F 90% 30.31 in 3.0 mi Calm Calm - N/A   Scattered Clouds
6:51 AM 57.0 °F - 54.0 °F 89% 30.30 in 5.0 mi Calm Calm - N/A   Mostly Cloudy
7:15 AM 57.0 °F - 54.0 °F 89% 30.32 in 1.5 mi Calm Calm - N/A   Clear
7:23 AM 55.9 °F - 53.1 °F 90% 30.32 in 0.8 mi Calm Calm - N/A   Mist
7:28 AM 55.9 °F - 53.1 °F 90% 30.32 in 2.5 mi Calm Calm - N/A   Clear
7:35 AM 55.9 °F - 53.1 °F 90% 30.32 in 4.0 mi Calm Calm - N/A   Clear
7:51 AM 57.0 °F - 54.0 °F 89% 30.32 in 5.0 mi Calm Calm - N/A   Clear
8:51 AM 61.0 °F - 57.0 °F 87% 30.33 in 6.0 mi Calm Calm - N/A   Clear
9:51 AM 69.1 °F - 60.1 °F 73% 30.33 in 10.0 mi Calm Calm - N/A   Partly Cloudy
10:51 AM 77.0 °F - 62.1 °F 60% 30.31 in 10.0 mi Calm Calm - N/A   Clear
11:51 AM 79.0 °F - 63.0 °F 58% 30.30 in 9.0 mi NW 8.1 mph - N/A   Partly Cloudy
12:51 PM 82.0 °F 82.7 °F 61.0 °F 49% 30.28 in 9.0 mi West 10.4 mph - N/A   Mostly Cloudy
1:51 PM 84.0 °F 84.0 °F 60.1 °F 44% 30.25 in 10.0 mi West 6.9 mph - N/A   Clear
2:51 PM 82.0 °F 82.1 °F 59.0 °F 45% 30.24 in 10.0 mi WNW 5.8 mph - N/A   Clear
3:51 PM 84.0 °F 84.4 °F 61.0 °F 46% 30.22 in 10.0 mi WNW 10.4 mph - N/A   Partly Cloudy
4:51 PM 82.9 °F 82.8 °F 59.0 °F 44% 30.22 in 10.0 mi West 8.1 mph - N/A   Clear
5:51 PM 82.0 °F 82.7 °F 61.0 °F 49% 30.24 in 10.0 mi West 8.1 mph - N/A   Partly Cloudy
6:51 PM 77.0 °F - 61.0 °F 58% 30.24 in 10.0 mi West 4.6 mph - N/A   Clear
7:51 PM 69.1 °F - 61.0 °F 75% 30.24 in 10.0 mi Calm Calm - N/A   Clear
8:51 PM 66.9 °F - 61.0 °F 81% 30.25 in 9.0 mi Calm Calm - N/A   Clear
9:51 PM 64.0 °F - 60.1 °F 87% 30.26 in 8.0 mi Calm Calm - N/A   Clear
10:51 PM 64.0 °F - 60.1 °F 87% 30.26 in 7.0 mi Calm Calm - N/A   Mostly Cloudy
11:51 PM 63.0 °F - 59.0 °F 87% 30.26 in 5.0 mi Calm Calm - N/A   Partly Cloudy